This is the latest recevied weather packets stored in our database for station/object IK3ZGB. If no packets are shown the sender has not sent any weather packets the latest 10 day(s).
| Time | Temp. | Humidity | Pressure | Rain* | Wind** | Luminosity | Snow |
|---|---|---|---|---|---|---|---|
| 1777766924 | 14.44° C | 66% | 1021.7 hPa | - | - | - | - |
| 1777766324 | 14.44° C | 66% | 1021.4 hPa | - | - | - | - |
| 1777765724 | 15° C | 65% | 1021.3 hPa | - | - | - | - |
| 1777765125 | 15° C | 65% | 1021.3 hPa | - | - | - | - |
| 1777764524 | 15.56° C | 65% | 1021.5 hPa | - | - | - | - |
| 1777763924 | 15.56° C | 64% | 1021.5 hPa | - | - | - | - |
| 1777763325 | 15.56° C | 64% | 1021.7 hPa | - | - | - | - |
| 1777762724 | 15.56° C | 64% | 1021.8 hPa | - | - | - | - |
| 1777762125 | 15.56° C | 64% | 1021.6 hPa | - | - | - | - |
| 1777761525 | 15.56° C | 64% | 1021.6 hPa | - | - | - | - |
| 1777760926 | 16.11° C | 64% | 1021.8 hPa | - | - | - | - |
| 1777760326 | 16.11° C | 63% | 1021.9 hPa | - | - | - | - |
| 1777759724 | 16.67° C | 63% | 1021.8 hPa | - | - | - | - |
| 1777759124 | 16.11° C | 64% | 1021.4 hPa | - | - | - | - |
| 1777758525 | 16.11° C | 63% | 1021.5 hPa | - | - | - | - |
| 1777757925 | 16.11° C | 63% | 1021.5 hPa | - | - | - | - |
| 1777757326 | 16.67° C | 63% | 1021.5 hPa | - | - | - | - |
| 1777756725 | 16.67° C | 62% | 1021.2 hPa | - | - | - | - |
| 1777756125 | 16.67° C | 62% | 1021.4 hPa | - | - | - | - |
| 1777755525 | 17.78° C | 61% | 1021.2 hPa | - | - | - | - |
| 1777754924 | 17.78° C | 61% | 1021.4 hPa | - | - | - | - |
| 1777754324 | 17.78° C | 60% | 1021.2 hPa | - | - | - | - |
| 1777753725 | 17.78° C | 60% | 1021.4 hPa | - | - | - | - |
| 1777753125 | 17.78° C | 60% | 1021.1 hPa | - | - | - | - |
| 1777752525 | 18.33° C | 58% | 1020.9 hPa | - | - | - | - |
* Rain since midnight (hover to see other rain measurements)
** Current wind speed in m/s (hover to see current wind gust speed)